Weather in Madison

United States     43°04′33″N   89°22′53″W
temp.,
°C
wind,
m/s
gust,
m/s
humid.,
%
clouds,
%
prec.,
mm/h
press.,
hPa
HPBL,
m
16 may, sun
sun1601:00+8ssw239827 0.0 102150
04:00+7sw129691 0.0 102113
07:00+10ssw119273 0.0 102252
10:00+16sse347557 0.0 1022681
13:00+19sse336182 0.0 10201433
16:00+19s3362100 0.1 10201321
19:00+17s2280100 0.3 101941
22:00+13s2389100 0.0 102036
17 may, mon
mon1701:00+12ese2293100 0.0 102014
04:00+11e2394100 0.0 102044
07:00+11ese2590100 0.0 1021126
10:00+16ese4676100 0.0 1021650
13:00+20se576267 0.1 10201559
16:00+18ese477292 0.1 1020814
19:00+17ese587962 0.1 1020546
22:00+12ese5129693 0.0 1022435
18 may, tue
tue1801:00+12ese41095100 0.0 1021522
04:00+12e51096100 0.0 1020402
07:00+13e51196100 0.1 1020494
10:00+13ese51197100 0.7 1020503
13:00+14ese71497100 4.1 1019755
16:00+15se61297100 0.8 1018916
19:00+15se51298100 1.1 1017675
22:00+15sse61298100 0.5 1018664
19 may, wed
wed1901:00+15se41098100 0.5 1017424
04:00+14se4999100 0.1 1017331
07:00+15se51098100 0.1 1018385
10:00+17sse5997100 0.1 1018382
13:00+18sse51196100 0.6 1018652
16:00+18sse61397100 1.1 1017678
19:00+19s6139699 2.3 1016832
22:00+19s71695100 0.8 1017761
20 may, thu
thu2001:00+18s61697100 0.9 1018799
04:00+18s51297100 0.0 1018576
07:00+18ssw61194100 0.0 1020539
10:00+21ssw61286100 0.0 1021779
13:00+18ssw41097100 2.7 1021630
16:00+22ssw61084100 1.3 1019912
19:00+21ssw51189100 2.2 1019747
22:00+19ssw5139763 0.0 1021522